Wind_Speed
14 13 13 12 11 10 10 9 7 6 6 5 4 4 3 3 2 2 3 3 4 4 4 4 5 6 7 7 8 8 8 7 7 7 6 6 5 4 4 4 4 4 4 5 5 5 5 5 5
14 14 13 13 12 11 12 10 9 8 7 6 5 5 4 4 4 4 4 5 5 6 6 6 6 7 8 8 9 9 9 8 8 8 7 7 6 6 6 5 5 5 5 5 5 5 5 6 6
14 14 14 13 13 13 14 11 10 9 8 7 7 6 6 6 6 6 6 6 6 6 7 7 8 9 9 9 9 9 9 9 8 8 8 7 7 7 7 7 6 6 6 6 7 7 6 7 6
15 15 15 15 15 15 14 12 12 11 9 9 8 8 8 8 7 7 7 8 8 8 9 9 10 11 11 11 10 10 10 10 10 9 9 8 8 8 8 8 8 8 8 8 8 8 8 8 8
15 15 16 16 16 15 14 13 13 13 11 10 10 10 10 9 9 9 9 10 10 10 11 12 12 12 12 12 11 11 12 11 11 11 10 10 10 10 10 10 9 9 9 9 10 10 9 9 9
16 15 16 17 17 16 15 14 14 14 13 13 12 12 11 11 11 12 12 12 12 12 12 13 13 13 13 13 13 13 13 13 12 12 12 12 12 12 12 12 11 11 11 11 11 11 12 11 11
17 17 18 18 18 17 16 15 15 15 15 15 14 14 13 12 13 13 13 12 12 12 13 13 14 14 15 15 15 14 14 14 14 14 14 13 13 13 14 13 13 13 13 13 13 13 14 13 13
18 18 19 20 19 19 17 17 17 17 17 16 16 15 15 14 14 15 14 13 13 13 13 14 15 16 16 16 16 16 16 16 16 16 16 15 15 15 15 15 15 15 15 15 15 15 15 15 15
18 19 21 21 21 20 19 18 18 17 17 17 17 16 16 16 16 16 16 15 14 14 15 16 17 17 17 18 17 17 17 17 18 17 16 16 16 17 16 17 17 17 17 17 17 16 16 17 17
18 21 22 21 21 20 19 19 18 18 18 18 18 18 18 18 18 17 17 16 15 16 16 17 18 19 19 18 18 18 18 18 18 18 17 17 17 18 18 19 19 18 18 18 18 18 18 18 18
20 22 22 21 20 20 20 19 19 19 20 20 20 20 19 19 18 18 17 17 17 17 17 18 19 20 20 20 19 19 19 19 19 19 19 19 19 19 19 19 19 20 20 20 20 20 19 19 20
20 21 21 21 21 21 21 20 20 21 21 21 21 21 21 19 18 18 18 18 17 18 18 19 20 21 21 21 21 20 20 19 19 20 20 20 20 20 20 19 20 21 21 22 21 21 21 21 21
20 20 21 21 22 21 21 21 21 22 22 22 22 21 20 19 19 19 19 18 19 19 19 20 21 21 21 22 22 21 21 21 21 21 21 21 22 21 21 21 22 22 22 22 22 22 23 23 23
18 19 20 21 22 22 21 21 22 22 22 22 22 21 21 20 20 20 21 21 21 21 21 21 22 22 21 22 22 22 22 22 21 21 22 22 23 22 22 23 23 23 23 23 23 23 23 23 25
16 18 20 21 22 22 22 22 22 22 22 22 22 22 22 22 22 22 22 22 22 22 21 22 22 23 23 23 23 23 23 23 23 23 23 23 23 23 24 24 23 23 24 24 24 25 25 25 26
15 16 18 20 21 21 20 21 23 22 22 22 23 23 23 23 23 23 23 23 23 22 22 23 23 23 23 23 23 24 24 24 24 23 23 23 24 24 25 25 24 25 25 25 26 27 28 27 27
14 15 16 18 19 20 20 22 23 23 22 22 22 23 22 23 24 24 24 25 24 24 23 23 23 24 24 24 24 24 24 25 25 25 24 24 24 25 25 26 25 26 26 26 27 27 27 28 28
14 14 15 17 18 18 19 21 21 22 21 22 22 23 23 24 24 24 24 25 25 25 24 24 24 25 25 25 26 25 25 26 26 25 25 25 26 26 26 27 27 27 27 27 27 27 28 27 28
13 14 15 17 17 18 19 20 20 20 21 21 22 23 23 24 24 23 24 24 25 25 25 25 26 26 26 27 27 26 26 26 26 26 26 26 27 27 28 28 28 28 28 28 27 28 29 28 28
13 14 15 17 17 18 19 21 21 21 21 22 22 22 23 23 23 23 23 24 25 25 25 25 26 27 27 28 27 26 26 26 27 27 26 26 28 29 29 28 29 29 30 30 29 29 29 29 29
13 14 15 16 17 18 20 20 21 21 21 21 21 21 22 23 23 24 24 24 26 26 26 27 27 28 29 28 28 27 27 27 27 27 27 27 28 29 29 29 30 30 30 31 31 30 30 30 29
12 14 15 16 16 17 18 18 20 21 21 22 22 22 22 23 25 25 25 25 26 27 27 28 28 28 29 29 29 28 28 28 28 28 28 29 30 31 31 31 31 30 31 31 30 31 31 30 29
12 13 14 15 15 16 17 17 19 21 21 22 23 23 23 24 24 25 25 25 26 26 27 28 28 28 28 29 29 30 29 29 28 28 28 29 30 31 31 31 31 32 31 31 31 31 31 30 30
13 13 14 14 14 15 16 18 18 20 21 21 22 22 22 22 23 24 24 25 26 26 27 27 28 28 28 28 28 28 28 28 28 28 29 30 30 30 30 30 30 31 31 31 31 31 31 30 30
14 13 13 14 15 16 18 18 19 20 20 20 20 20 21 21 22 23 24 25 26 27 27 28 27 27 27 27 27 27 28 28 28 29 29 30 30 30 30 30 30 30 30 30 30 31 31 31 30
14 14 14 15 15 16 19 20 19 19 19 18 18 19 19 20 21 22 23 24 25 26 26 27 27 27 27 28 27 28 28 28 28 29 29 29 30 31 31 31 30 30 30 31 30 30 31 31 30
15 15 16 17 17 17 18 20 19 19 19 19 19 19 19 19 20 21 22 23 23 24 25 25 25 26 26 27 27 28 28 29 29 29 30 30 31 31 32 31 31 30 30 31 31 30 30 30 31
14 15 16 16 16 17 16 18 19 18 18 18 18 18 19 19 20 21 21 21 22 23 23 24 25 25 26 26 27 28 28 29 30 30 31 31 31 31 31 31 31 30 30 29 29 30 30 30 31
13 14 15 15 16 16 15 16 19 18 18 17 17 17 18 19 19 20 21 21 22 22 22 23 24 24 24 25 26 28 29 29 30 30 30 31 31 32 31 31 31 31 30 30 29 30 29 29 29
14 14 14 15 15 15 15 16 17 17 16 17 16 16 17 18 19 20 20 21 21 22 23 23 24 24 24 25 26 27 28 28 28 28 29 30 30 31 30 30 31 30 29 29 28 29 29 29 29
Wind_Direction
218 217 217 218 220 221 222 225 223 219 213 209 211 209 222 230 241 258 270 276 278 283 279 274 279 283 285 284 283 281 280 279 278 276 273 269 269 275 282 292 305 316 323 327 326 328 330 328 328
219 217 218 219 218 220 228 229 227 226 222 222 222 225 239 246 250 257 269 275 277 280 280 278 280 281 281 282 281 282 281 280 279 275 273 273 272 276 278 282 289 296 301 305 308 311 312 315 318
221 220 221 221 220 218 229 230 231 231 230 232 235 243 254 256 258 267 274 279 276 278 280 279 282 281 278 280 279 280 280 279 280 277 274 274 275 274 274 275 277 281 285 289 296 300 302 302 304
223 223 224 224 225 228 231 233 234 234 234 240 245 252 259 261 263 268 274 280 282 283 284 283 282 280 278 279 278 279 279 278 278 278 277 274 274 273 270 271 272 273 276 280 285 290 293 293 293
224 225 227 228 230 232 233 234 235 236 239 243 247 256 264 266 268 271 277 283 282 282 282 281 281 278 275 277 277 279 278 277 278 279 277 275 274 274 271 269 269 269 270 274 278 280 281 282 283
225 226 228 231 234 234 233 234 236 239 244 245 248 256 265 272 274 278 282 285 281 279 280 278 276 275 273 273 274 274 277 279 278 280 278 276 277 275 274 272 270 269 269 271 274 275 276 275 276
226 226 228 231 235 236 236 235 237 241 246 248 253 259 265 272 280 283 284 284 282 279 277 273 271 271 271 273 273 275 276 277 279 281 279 277 279 278 274 273 272 271 271 270 270 270 271 270 271
229 229 231 232 235 237 239 238 239 244 247 251 256 261 267 275 282 284 282 282 281 279 275 273 273 272 272 272 271 272 274 276 278 280 278 278 278 278 276 275 273 272 271 271 270 268 267 268 269
230 229 232 233 236 239 241 241 241 245 250 253 260 266 270 274 279 281 279 278 279 279 275 273 274 273 273 273 271 271 273 277 279 280 280 279 280 279 277 277 275 273 272 272 270 268 265 267 266
230 231 233 236 238 241 242 242 243 246 251 255 261 266 271 275 280 280 279 275 277 277 275 274 273 271 272 273 272 272 273 276 278 279 279 279 278 279 279 278 277 277 274 273 270 268 266 266 265
232 234 237 238 240 241 242 244 245 248 253 259 263 267 271 277 279 279 278 274 274 274 273 272 269 268 270 271 272 273 274 275 276 277 277 277 278 279 279 278 278 278 278 275 271 270 268 267 265
235 237 237 239 240 241 243 246 248 252 256 261 264 269 273 277 278 279 275 272 273 274 273 274 270 269 270 269 270 272 274 275 276 276 277 277 276 277 278 278 277 278 277 275 274 274 270 266 264
235 238 238 240 241 243 245 247 250 254 259 263 265 269 275 276 277 276 272 271 273 274 274 272 270 269 268 268 271 271 274 274 274 274 275 276 276 277 278 278 278 279 277 276 274 274 273 268 265
237 238 239 241 244 246 248 249 252 257 261 265 270 272 275 276 276 275 270 270 272 273 274 272 272 270 268 267 269 270 272 273 275 275 275 276 276 277 278 278 278 278 276 276 276 277 276 273 269
239 239 240 242 245 248 250 252 255 260 264 268 272 274 274 274 275 275 272 271 271 273 273 273 273 271 271 272 273 271 273 275 275 275 275 274 274 275 277 278 278 278 277 275 275 276 276 273 270
242 243 243 244 246 249 251 255 258 261 264 266 270 274 273 274 274 273 272 271 271 273 273 273 273 273 273 275 276 274 272 273 274 274 274 273 273 275 276 278 278 278 278 276 275 276 275 272 269
244 242 244 249 248 251 252 255 259 262 264 267 270 274 273 274 275 274 272 271 271 272 274 273 273 273 274 275 276 275 275 275 274 274 274 274 275 276 276 276 277 278 278 277 276 276 273 272 268
241 242 247 252 252 253 256 258 261 263 264 267 270 273 274 276 275 274 274 272 270 271 273 274 274 275 274 274 275 276 275 275 275 275 275 276 276 277 276 276 276 277 277 277 276 275 273 271 268
241 242 246 252 256 257 260 262 263 267 267 269 270 272 273 275 274 274 274 272 271 272 273 275 276 277 275 274 275 275 274 275 276 276 275 275 276 277 277 277 276 275 275 275 274 274 273 270 269
244 247 252 257 258 261 264 266 268 270 271 272 271 270 271 274 274 273 272 271 272 274 276 277 277 276 275 276 275 274 274 275 275 275 275 276 276 277 277 276 275 274 274 273 273 273 272 270 267
249 249 253 258 262 263 266 268 270 270 270 272 272 273 273 274 272 271 271 273 274 273 273 276 277 278 275 276 275 274 273 274 275 275 275 275 276 276 276 277 277 276 274 273 272 271 269 268 266
253 252 257 262 267 270 269 270 271 270 271 272 273 274 274 274 274 273 273 274 274 273 273 275 275 277 276 276 276 273 274 275 275 276 276 276 277 277 277 278 278 276 275 273 272 271 269 268 266
252 256 260 264 265 265 270 269 273 273 274 274 275 275 275 274 274 275 274 275 276 276 276 276 277 277 277 277 277 275 275 277 277 278 279 279 279 278 278 279 280 276 275 274 272 270 269 268 266
257 261 264 266 269 270 269 271 273 276 278 276 275 276 274 275 276 276 276 277 276 277 278 278 278 277 278 278 277 275 275 277 277 277 277 279 279 278 277 278 279 277 277 276 274 271 269 268 266
260 261 267 270 270 271 271 273 274 278 279 278 278 278 274 273 276 277 278 278 278 279 280 278 279 279 279 277 277 276 276 277 278 278 278 278 279 279 278 279 278 277 277 277 276 273 269 268 266
259 259 257 260 266 271 275 275 277 279 278 278 278 278 277 276 279 280 280 279 279 279 278 277 278 278 278 277 277 276 277 278 279 279 278 278 279 280 280 280 279 277 276 277 276 273 270 267 267
262 261 259 261 264 268 275 280 280 278 278 278 277 277 278 280 282 283 283 281 281 280 278 278 280 279 277 277 277 277 277 277 277 278 279 279 278 279 279 279 278 279 279 277 275 273 270 268 267
263 263 264 265 268 271 276 282 284 281 282 280 277 277 279 281 282 283 284 283 283 282 282 283 282 283 280 277 276 277 278 278 278 278 279 279 277 278 278 279 278 278 277 276 275 274 272 270 269
267 265 266 267 266 271 278 282 286 286 284 282 277 278 280 281 286 287 286 286 285 285 286 286 283 284 285 282 279 280 279 278 279 279 278 278 277 277 277 278 278 278 276 276 276 275 273 272 271
268 266 267 270 275 275 279 286 287 286 287 286 282 281 283 286 287 288 291 291 290 290 288 287 287 288 288 287 283 282 282 281 281 280 279 278 278 277 278 278 277 277 276 276 275 274 273 272 272
Height
5902 5904 5905 5907 5910 5912 5913 5913 5914 5915 5915 5915 5916 5916 5916 5916 5917 5918 5915 5913 5913 5913 5913 5913 5913 5913 5913 5913 5912 5912 5911 5910 5910 5910 5909 5909 5908 5908 5907 5907 5907 5907 5906 5906 5905 5904 5904 5903 5903
5899 5901 5904 5906 5908 5910 5911 5911 5912 5913 5914 5914 5914 5914 5914 5914 5914 5914 5913 5912 5912 5912 5912 5912 5912 5912 5911 5911 5911 5910 5910 5909 5908 5908 5908 5907 5907 5906 5906 5906 5906 5905 5905 5905 5904 5903 5903 5902 5902
5897 5898 5902 5904 5906 5908 5909 5909 5910 5911 5912 5912 5913 5913 5913 5913 5912 5912 5911 5911 5911 5910 5910 5910 5910 5910 5909 5909 5909 5908 5908 5907 5907 5906 5906 5905 5905 5905 5904 5904 5904 5904 5903 5903 5902 5902 5901 5901 5900
5894 5897 5900 5902 5903 5904 5905 5907 5908 5909 5910 5910 5911 5911 5911 5911 5911 5910 5910 5909 5909 5908 5908 5908 5908 5908 5907 5907 5906 5906 5906 5905 5905 5904 5904 5903 5903 5903 5902 5902 5902 5901 5901 5901 5900 5900 5900 5899 5899
5891 5894 5897 5899 5900 5901 5903 5904 5906 5907 5908 5908 5909 5909 5909 5909 5908 5908 5908 5907 5907 5906 5906 5905 5905 5905 5905 5905 5904 5904 5903 5902 5902 5902 5901 5901 5901 5901 5900 5900 5899 5899 5899 5899 5898 5898 5897 5897 5897
5890 5892 5895 5896 5897 5899 5900 5902 5904 5905 5906 5906 5907 5907 5906 5907 5906 5906 5906 5905 5905 5904 5903 5903 5902 5902 5902 5902 5902 5901 5901 5900 5899 5899 5899 5899 5898 5898 5898 5897 5897 5896 5896 5896 5896 5895 5895 5894 5894
5887 5889 5891 5893 5894 5896 5898 5900 5901 5902 5903 5904 5904 5905 5904 5904 5904 5904 5903 5903 5902 5901 5901 5900 5899 5899 5899 5899 5899 5899 5898 5898 5897 5897 5896 5896 5895 5895 5894 5894 5894 5894 5893 5893 5893 5892 5892 5892 5891
5884 5887 5888 5889 5891 5893 5895 5897 5899 5900 5901 5902 5902 5902 5902 5902 5902 5901 5900 5900 5899 5899 5898 5898 5897 5897 5897 5896 5896 5895 5895 5895 5894 5894 5893 5892 5892 5891 5891 5891 5891 5890 5890 5890 5889 5889 5889 5888 5888
5881 5884 5885 5886 5889 5890 5892 5894 5896 5897 5898 5899 5899 5900 5900 5900 5899 5898 5898 5897 5896 5896 5895 5895 5894 5894 5894 5893 5892 5892 5891 5891 5891 5890 5889 5889 5888 5888 5887 5887 5886 5886 5886 5886 5886 5885 5885 5884 5884
5878 5880 5881 5883 5886 5888 5889 5892 5893 5895 5895 5896 5896 5897 5897 5896 5896 5895 5895 5894 5893 5893 5892 5892 5891 5891 5890 5889 5889 5888 5888 5887 5887 5886 5886 5885 5885 5884 5883 5883 5882 5882 5882 5881 5881 5881 5881 5880 5880
5874 5876 5878 5880 5882 5885 5887 5888 5890 5891 5892 5893 5893 5894 5893 5893 5893 5892 5891 5891 5890 5890 5889 5888 5888 5887 5886 5886 5885 5884 5884 5883 5883 5882 5882 5881 5881 5880 5879 5878 5878 5877 5877 5877 5876 5876 5876 5876 5876
5871 5873 5875 5877 5879 5882 5884 5885 5887 5888 5889 5889 5889 5890 5890 5889 5889 5888 5887 5887 5887 5886 5885 5885 5884 5883 5882 5882 5881 5880 5880 5879 5879 5878 5878 5877 5876 5875 5875 5874 5873 5872 5872 5871 5871 5870 5871 5870 5870
5868 5870 5872 5874 5876 5878 5880 5882 5883 5884 5885 5885 5885 5886 5886 5885 5885 5884 5883 5883 5883 5882 5881 5881 5880 5878 5878 5877 5877 5876 5875 5875 5875 5874 5873 5872 5872 5871 5870 5869 5868 5867 5867 5866 5865 5865 5865 5864 5864
5866 5867 5869 5871 5873 5875 5877 5878 5880 5880 5881 5881 5881 5882 5882 5881 5881 5880 5879 5879 5878 5877 5877 5876 5876 5875 5875 5873 5872 5872 5871 5870 5870 5869 5868 5868 5867 5866 5865 5864 5863 5862 5862 5861 5860 5860 5859 5859 5859
5863 5865 5867 5868 5870 5872 5874 5875 5876 5877 5877 5878 5878 5878 5878 5877 5877 5876 5875 5874 5874 5873 5872 5872 5871 5871 5870 5869 5868 5867 5867 5866 5865 5865 5864 5863 5862 5861 5860 5859 5858 5857 5856 5856 5855 5854 5854 5854 5853
5861 5863 5864 5865 5867 5869 5873 5873 5872 5873 5874 5874 5874 5874 5873 5873 5872 5871 5870 5869 5869 5869 5868 5867 5867 5866 5866 5865 5863 5863 5862 5861 5860 5859 5859 5858 5857 5856 5855 5854 5853 5852 5851 5850 5850 5849 5848 5847 5847
5859 5861 5862 5863 5864 5865 5868 5868 5868 5869 5869 5869 5869 5869 5868 5868 5867 5866 5865 5865 5864 5864 5863 5862 5862 5861 5860 5859 5858 5857 5857 5856 5855 5854 5853 5852 5851 5850 5849 5848 5847 5846 5845 5844 5843 5843 5841 5841 5840
5858 5859 5859 5860 5861 5862 5863 5864 5864 5864 5865 5865 5864 5864 5863 5862 5861 5861 5860 5859 5859 5858 5858 5857 5857 5856 5854 5854 5853 5852 5851 5850 5849 5849 5848 5847 5846 5845 5843 5842 5841 5840 5839 5838 5837 5836 5835 5834 5834
5854 5856 5857 5857 5857 5859 5859 5859 5860 5859 5860 5860 5859 5859 5858 5857 5856 5855 5855 5854 5854 5853 5853 5852 5851 5850 5849 5848 5847 5846 5845 5844 5844 5843 5842 5840 5839 5838 5837 5836 5835 5833 5832 5832 5831 5830 5829 5828 5828
5851 5853 5854 5854 5854 5855 5855 5855 5855 5855 5855 5855 5854 5854 5853 5852 5851 5850 5849 5849 5848 5848 5847 5846 5845 5844 5843 5842 5840 5840 5839 5838 5837 5836 5835 5834 5833 5832 5830 5829 5828 5826 5825 5825 5824 5823 5822 5821 5821
5849 5850 5851 5851 5851 5851 5851 5851 5851 5850 5850 5849 5849 5848 5847 5846 5845 5844 5844 5843 5842 5842 5841 5840 5839 5838 5836 5835 5834 5833 5832 5831 5830 5829 5828 5827 5825 5824 5823 5822 5821 5819 5818 5817 5816 5815 5814 5814 5814
5846 5846 5847 5847 5848 5848 5848 5848 5847 5846 5845 5844 5844 5843 5842 5841 5839 5838 5838 5837 5836 5836 5835 5834 5833 5832 5830 5828 5827 5826 5825 5824 5823 5822 5821 5819 5818 5817 5816 5814 5813 5812 5810 5809 5808 5808 5807 5807 5807
5843 5843 5843 5843 5844 5844 5844 5844 5844 5841 5840 5840 5838 5837 5836 5835 5834 5833 5832 5831 5831 5830 5829 5827 5826 5825 5823 5821 5820 5819 5818 5817 5816 5814 5813 5812 5810 5809 5808 5806 5805 5804 5803 5802 5801 5800 5800 5800 5799
5839 5840 5840 5840 5841 5841 5841 5841 5840 5837 5836 5834 5833 5832 5831 5829 5828 5827 5826 5825 5825 5824 5823 5821 5819 5818 5816 5814 5813 5812 5811 5810 5809 5807 5806 5804 5803 5801 5800 5799 5797 5796 5795 5794 5793 5792 5792 5792 5792
5836 5838 5839 5839 5839 5839 5836 5835 5835 5832 5831 5829 5828 5826 5825 5824 5823 5822 5821 5820 5819 5818 5816 5814 5812 5810 5809 5807 5806 5805 5804 5803 5801 5800 5798 5797 5795 5794 5792 5791 5790 5788 5787 5786 5785 5784 5784 5784 5784
5833 5834 5836 5836 5836 5835 5831 5830 5830 5828 5826 5825 5823 5821 5820 5819 5818 5816 5815 5814 5812 5811 5809 5807 5805 5803 5802 5800 5799 5798 5797 5795 5794 5792 5791 5789 5787 5786 5784 5783 5782 5780 5779 5778 5777 5776 5776 5776 5776
5829 5829 5830 5830 5829 5829 5828 5826 5824 5823 5822 5820 5819 5817 5815 5814 5813 5811 5810 5808 5806 5804 5802 5800 5798 5796 5795 5793 5792 5791 5790 5788 5786 5784 5783 5781 5779 5778 5776 5775 5774 5772 5771 5770 5769 5768 5768 5767 5768
5825 5825 5825 5825 5825 5825 5824 5822 5821 5818 5817 5816 5814 5812 5811 5809 5808 5806 5804 5802 5800 5798 5796 5794 5792 5790 5788 5787 5785 5784 5782 5780 5778 5777 5775 5773 5771 5769 5768 5766 5765 5764 5763 5762 5761 5760 5760 5759 5759
5821 5821 5821 5821 5821 5820 5820 5821 5816 5814 5813 5811 5809 5808 5806 5805 5803 5801 5799 5797 5795 5793 5790 5788 5786 5784 5782 5780 5778 5776 5775 5773 5771 5769 5766 5764 5763 5761 5759 5758 5757 5756 5755 5754 5753 5752 5752 5751 5751
5817 5817 5817 5817 5816 5815 5815 5817 5811 5810 5808 5807 5805 5803 5802 5800 5798 5796 5794 5792 5790 5787 5785 5783 5780 5778 5776 5774 5772 5769 5767 5765 5763 5761 5759 5757 5755 5753 5751 5750 5748 5747 5746 5745 5745 5744 5744 5744 5743